This is the latest recevied weather packets stored in our database for station/object DB0MI. If no packets are shown the sender has not sent any weather packets the latest 10 day(s).
| Time | Temp. | Humidity | Pressure | Rain* | Wind** | Luminosity | Snow |
|---|---|---|---|---|---|---|---|
| 1777627918 | 20.56° C | 34% | 1026.1 hPa | 0 mm | - | - | - |
| 1777627318 | 20° C | 35% | 1026 hPa | 0 mm | - | - | - |
| 1777626718 | 19.44° C | 36% | 1025.7 hPa | 0 mm | - | - | - |
| 1777626118 | 18.89° C | 37% | 1025.7 hPa | 0 mm | - | - | - |
| 1777625518 | 18.33° C | 39% | 1026 hPa | 0 mm | - | - | - |
| 1777624918 | 17.22° C | 41% | 1026 hPa | 0 mm | - | - | - |
| 1777624318 | 16.67° C | 42% | 1025.9 hPa | 0 mm | - | - | - |
| 1777623718 | 15.56° C | 43% | 1026.1 hPa | 0 mm | - | - | - |
| 1777623118 | 15° C | 44% | 1026 hPa | 0 mm | - | - | - |
| 1777622518 | 14.44° C | 46% | 1026.1 hPa | 0 mm | - | - | - |
| 1777621918 | 13.33° C | 47% | 1026 hPa | 0 mm | - | - | - |
| 1777621318 | 12.78° C | 49% | 1025.9 hPa | 0 mm | - | - | - |
| 1777620718 | 11.67° C | 50% | 1025.8 hPa | 0 mm | - | - | - |
| 1777620118 | 10.56° C | 52% | 1025.7 hPa | 0 mm | - | - | - |
| 1777619518 | 10° C | 54% | 1025.8 hPa | 0 mm | - | - | - |
| 1777618918 | 8.89° C | 57% | 1025.8 hPa | 0 mm | - | - | - |
| 1777618318 | 7.78° C | 58% | 1025.8 hPa | 0 mm | - | - | - |
| 1777617718 | 7.22° C | 58% | 1026 hPa | 0 mm | - | - | - |
| 1777617118 | 7.22° C | 59% | 1025.7 hPa | 0 mm | - | - | - |
| 1777616518 | 6.67° C | 60% | 1025.8 hPa | 0 mm | - | - | - |
| 1777615919 | 6.67° C | 60% | 1025.6 hPa | 0 mm | - | - | - |
| 1777615318 | 6.11° C | 60% | 1025.6 hPa | 0 mm | - | - | - |
| 1777614718 | 6.11° C | 61% | 1025.9 hPa | 0 mm | - | - | - |
| 1777614118 | 6.11° C | 61% | 1025.9 hPa | 0 mm | - | - | - |
| 1777613518 | 5.56° C | 62% | 1025.7 hPa | 0 mm | - | - | - |
* Rain latest hour (hover to see other rain measurements)
** Current wind speed in m/s (hover to see current wind gust speed)